RYR3CE LPPR-EGCC

Flight info

Callsign RYR3CE
Flight time 2h 8m
Altitude 38000
Route TURON P600 ASDEB DCT KORUL DCT KOLEK DCT EBOMO DCT RUSIB DCT NOZHU DCT SHIRI DCT TOJAQ DCT EPACE DCT ACCOP DCT MOCQO P16 AXCIS
Aircraft B38M/M-SDE1FGHILORVWXY/HB1

Departure

Time 2026-05-07 15:17
Airport Francisco de Sá Carneiro Airport (LPPR)

Arrival

Time 2026-05-07 17:25
Airport Manchester Airport (EGCC)
Time Latitude Longitude Altitude Speed Heading
2026-05-07 14:42 41.23683 -8.67257 239 ft 0 kts 83°
2026-05-07 15:08 41.23681 -8.67275 238 ft 3 kts 84°
2026-05-07 15:08 41.23679 -8.67301 237 ft 3 kts 84°
2026-05-07 15:09 41.23680 -8.67328 242 ft 3 kts 115°
2026-05-07 15:09 41.23693 -8.67349 240 ft 3 kts 150°
2026-05-07 15:09 41.23700 -8.67354 240 ft 0 kts 157°
2026-05-07 15:13 41.23697 -8.67352 240 ft 1 kts 158°
2026-05-07 15:13 41.23692 -8.67349 240 ft 1 kts 159°
2026-05-07 15:13 41.23680 -8.67344 241 ft 4 kts 164°
2026-05-07 15:14 41.23634 -8.67331 237 ft 8 kts 172°
2026-05-07 15:14 41.23575 -8.67348 236 ft 10 kts 208°
2026-05-07 15:14 41.23510 -8.67387 236 ft 11 kts 191°
2026-05-07 15:14 41.23427 -8.67373 238 ft 12 kts 167°
2026-05-07 15:15 41.23357 -8.67381 238 ft 10 kts 212°
2026-05-07 15:15 41.23331 -8.67444 237 ft 6 kts 260°
2026-05-07 15:15 41.23323 -8.67500 238 ft 6 kts 259°
2026-05-07 15:15 41.23315 -8.67553 239 ft 7 kts 259°
2026-05-07 15:16 41.23301 -8.67647 242 ft 12 kts 258°
2026-05-07 15:16 41.23327 -8.67736 243 ft 12 kts 330°
2026-05-07 15:16 41.23457 -8.67772 237 ft 43 kts 348°
2026-05-07 15:16 41.24027 -8.67921 215 ft 123 kts 349°
2026-05-07 15:17 41.25092 -8.68198 297 ft 177 kts 347°
2026-05-07 15:17 41.26321 -8.68574 1211 ft 184 kts 340°
2026-05-07 15:17 41.27599 -8.69079 2084 ft 200 kts 345°
2026-05-07 15:17 41.29029 -8.69466 2664 ft 218 kts 345°
2026-05-07 15:18 41.30575 -8.69878 3355 ft 241 kts 347°
2026-05-07 15:18 41.32325 -8.69965 4175 ft 253 kts
2026-05-07 15:18 41.34102 -8.69575 4968 ft 269 kts
2026-05-07 15:18 41.36034 -8.69186 5671 ft 285 kts
2026-05-07 15:19 41.37999 -8.68816 6594 ft 289 kts
2026-05-07 15:19 41.40019 -8.68443 7490 ft 294 kts
2026-05-07 15:19 41.42043 -8.68074 8447 ft 296 kts
2026-05-07 15:19 41.44085 -8.67706 9378 ft 300 kts
2026-05-07 15:20 41.46185 -8.67330 10205 ft 306 kts
2026-05-07 15:20 41.48368 -8.66937 10667 ft 324 kts
2026-05-07 15:20 41.50654 -8.66528 11235 ft 337 kts
2026-05-07 15:20 41.53014 -8.66104 11947 ft 344 kts
2026-05-07 15:21 41.55376 -8.65679 12780 ft 347 kts
2026-05-07 15:21 41.57797 -8.65244 13595 ft 351 kts
2026-05-07 15:21 41.60206 -8.64810 14312 ft 354 kts
2026-05-07 15:21 41.62683 -8.64363 15052 ft 357 kts
2026-05-07 15:22 41.65154 -8.63916 15793 ft 361 kts
2026-05-07 15:22 41.67662 -8.63463 16515 ft 364 kts
2026-05-07 15:22 41.70169 -8.63009 17209 ft 368 kts
2026-05-07 15:22 41.72721 -8.62548 17911 ft 371 kts
2026-05-07 15:23 41.75308 -8.62079 18571 ft 373 kts
2026-05-07 15:23 41.77865 -8.61616 19202 ft 375 kts
2026-05-07 15:23 41.80465 -8.61144 19841 ft 376 kts
2026-05-07 15:23 41.83050 -8.60674 20463 ft 377 kts
2026-05-07 15:24 41.85674 -8.60196 21060 ft 379 kts
2026-05-07 15:24 41.88272 -8.59723 21639 ft 381 kts
2026-05-07 15:24 41.90916 -8.59242 22215 ft 384 kts
2026-05-07 15:24 41.93579 -8.58757 22795 ft 386 kts
2026-05-07 15:25 41.96272 -8.58266 23358 ft 388 kts
2026-05-07 15:25 41.98950 -8.57777 23840 ft 390 kts
2026-05-07 15:25 42.01644 -8.57285 24272 ft 393 kts
2026-05-07 15:25 42.04344 -8.56791 24691 ft 395 kts
2026-05-07 15:26 42.07106 -8.56310 25105 ft 398 kts
2026-05-07 15:26 42.09848 -8.55882 25512 ft 400 kts
2026-05-07 15:26 42.12629 -8.55442 25933 ft 403 kts
2026-05-07 15:26 42.15440 -8.54995 26330 ft 405 kts
2026-05-07 15:27 42.18243 -8.54547 26717 ft 408 kts
2026-05-07 15:27 42.21050 -8.54099 27119 ft 410 kts
2026-05-07 15:27 42.23902 -8.53643 27500 ft 412 kts
2026-05-07 15:27 42.26758 -8.53185 27849 ft 414 kts
2026-05-07 15:28 42.29646 -8.52723 28223 ft 416 kts
2026-05-07 15:28 42.32519 -8.52262 28597 ft 419 kts
2026-05-07 15:28 42.35432 -8.51794 28971 ft 421 kts
2026-05-07 15:28 42.38350 -8.51325 29310 ft 424 kts
2026-05-07 15:29 42.41277 -8.50855 29690 ft 425 kts
2026-05-07 15:29 42.44211 -8.50382 30014 ft 428 kts
2026-05-07 15:29 42.47207 -8.49899 30327 ft 430 kts
2026-05-07 15:29 42.50163 -8.49400 30601 ft 433 kts
2026-05-07 15:30 42.53081 -8.48139 30935 ft 444 kts 20°
2026-05-07 15:30 42.55865 -8.46334 31244 ft 445 kts 19°
2026-05-07 15:30 42.58700 -8.44539 31415 ft 449 kts 20°
2026-05-07 15:30 42.61512 -8.42728 31729 ft 450 kts 20°
2026-05-07 15:31 42.64359 -8.40878 32013 ft 452 kts 20°
2026-05-07 15:31 42.67206 -8.39022 32285 ft 454 kts 20°
2026-05-07 15:31 42.70038 -8.37171 32588 ft 455 kts 20°
2026-05-07 15:31 42.72905 -8.35297 32960 ft 455 kts 20°
2026-05-07 15:32 42.75734 -8.33445 33343 ft 454 kts 20°
2026-05-07 15:32 42.78595 -8.31570 33711 ft 453 kts 20°
2026-05-07 15:32 42.81425 -8.29713 34042 ft 452 kts 20°
2026-05-07 15:32 42.84254 -8.27855 34312 ft 452 kts 20°
2026-05-07 15:33 42.87115 -8.25974 34583 ft 452 kts 20°
2026-05-07 15:33 42.89933 -8.24120 34842 ft 453 kts 20°
2026-05-07 15:33 42.92792 -8.22237 35091 ft 454 kts 20°
2026-05-07 15:33 42.95609 -8.20379 35338 ft 454 kts 20°
2026-05-07 15:34 42.98478 -8.18486 35597 ft 454 kts 20°
2026-05-07 15:34 43.01292 -8.16627 35832 ft 454 kts 20°
2026-05-07 15:34 43.04165 -8.14726 36061 ft 455 kts 20°
2026-05-07 15:34 43.07013 -8.12840 36302 ft 455 kts 21°
2026-05-07 15:35 43.09871 -8.10946 36513 ft 456 kts 21°
2026-05-07 15:35 43.12711 -8.09062 36733 ft 456 kts 21°
2026-05-07 15:35 43.15577 -8.07158 36950 ft 456 kts 21°
2026-05-07 15:35 43.18419 -8.05269 37146 ft 456 kts 21°
2026-05-07 15:36 43.21270 -8.03372 37338 ft 456 kts 21°
2026-05-07 15:36 43.24145 -8.01456 37544 ft 456 kts 21°
2026-05-07 15:36 43.26990 -7.99558 37728 ft 457 kts 21°
2026-05-07 15:36 43.29849 -7.97649 37877 ft 457 kts 21°
2026-05-07 15:37 43.35604 -7.93801 37882 ft 456 kts 22°
2026-05-07 15:37 43.41270 -7.90004 37880 ft 456 kts 22°
2026-05-07 15:38 43.46047 -7.86797 37888 ft 456 kts 22°
2026-05-07 15:38 43.52675 -7.82337 37895 ft 455 kts 22°
2026-05-07 15:39 43.58376 -7.78493 37890 ft 455 kts 22°
2026-05-07 15:39 43.64071 -7.74644 37898 ft 455 kts 22°
2026-05-07 15:40 43.69733 -7.70810 37899 ft 454 kts 22°
2026-05-07 15:40 43.75398 -7.66965 37894 ft 454 kts 22°
2026-05-07 15:41 43.80147 -7.63736 37902 ft 454 kts 22°
2026-05-07 15:41 43.85804 -7.59881 37896 ft 453 kts 22°
2026-05-07 15:42 43.91469 -7.56013 37900 ft 453 kts 22°
2026-05-07 15:42 43.97115 -7.52150 37904 ft 454 kts 22°
2026-05-07 15:43 44.02808 -7.48246 37894 ft 454 kts 22°
2026-05-07 15:43 44.08476 -7.44351 37904 ft 454 kts 22°
2026-05-07 15:44 44.14138 -7.40452 37904 ft 454 kts 22°
2026-05-07 15:44 44.19788 -7.36552 37905 ft 454 kts 23°
2026-05-07 15:45 44.25465 -7.32626 37903 ft 454 kts 23°
2026-05-07 15:45 44.31119 -7.28708 37906 ft 455 kts 23°
2026-05-07 15:46 44.39621 -7.22798 37917 ft 455 kts 23°
2026-05-07 15:47 44.45274 -7.18859 37911 ft 455 kts 23°
2026-05-07 15:47 44.50966 -7.14883 37925 ft 455 kts 23°
2026-05-07 15:48 44.56621 -7.10925 37915 ft 455 kts 23°
2026-05-07 15:48 44.62293 -7.06947 37917 ft 456 kts 23°
2026-05-07 15:49 44.67984 -7.02947 37920 ft 456 kts 24°
2026-05-07 15:49 44.73641 -6.98963 37925 ft 456 kts 24°
2026-05-07 15:50 44.79322 -6.94954 37928 ft 457 kts 24°
2026-05-07 15:50 44.84951 -6.90712 37932 ft 458 kts 28°
2026-05-07 15:51 44.90426 -6.86155 37928 ft 458 kts 27°
2026-05-07 15:51 44.95954 -6.81605 37935 ft 458 kts 27°
2026-05-07 15:52 45.01446 -6.77081 37937 ft 458 kts 27°
2026-05-07 15:52 45.06967 -6.72524 37943 ft 458 kts 27°
2026-05-07 15:53 45.12468 -6.67974 37936 ft 458 kts 28°
2026-05-07 15:53 45.17973 -6.63409 37941 ft 458 kts 28°
2026-05-07 15:54 45.23512 -6.58806 37944 ft 458 kts 28°
2026-05-07 15:54 45.28982 -6.54251 37945 ft 458 kts 28°
2026-05-07 15:55 45.34483 -6.49658 37948 ft 458 kts 28°
2026-05-07 15:55 45.39976 -6.45063 37953 ft 458 kts 28°
2026-05-07 15:56 45.45484 -6.40443 37950 ft 458 kts 28°
2026-05-07 15:56 45.50955 -6.35845 37954 ft 458 kts 28°
2026-05-07 15:57 45.56454 -6.31213 37950 ft 458 kts 28°
2026-05-07 15:57 45.61934 -6.26585 37954 ft 458 kts 28°
2026-05-07 15:58 45.67413 -6.21948 37954 ft 458 kts 28°
2026-05-07 15:58 45.72908 -6.17287 37958 ft 458 kts 28°
2026-05-07 15:59 45.78400 -6.12617 37960 ft 458 kts 28°
2026-05-07 15:59 45.83874 -6.07953 37964 ft 458 kts 28°
2026-05-07 16:00 45.89372 -6.03256 37965 ft 458 kts 28°
2026-05-07 16:00 45.94839 -5.98576 37968 ft 458 kts 28°
2026-05-07 16:01 46.00306 -5.93884 37965 ft 459 kts 28°
2026-05-07 16:01 46.05790 -5.89167 37963 ft 459 kts 28°
2026-05-07 16:02 46.11275 -5.84438 37973 ft 459 kts 28°
2026-05-07 16:02 46.16751 -5.79706 37983 ft 459 kts 28°
2026-05-07 16:03 46.22250 -5.74942 37975 ft 459 kts 28°
2026-05-07 16:03 46.27748 -5.70168 37977 ft 460 kts 28°
2026-05-07 16:04 46.33228 -5.65398 37980 ft 460 kts 28°
2026-05-07 16:04 46.38707 -5.60619 37983 ft 461 kts 28°
2026-05-07 16:05 46.44197 -5.55818 37983 ft 461 kts 29°
2026-05-07 16:05 46.49686 -5.51008 37978 ft 461 kts 29°
2026-05-07 16:06 46.55178 -5.46185 37981 ft 461 kts 29°
2026-05-07 16:06 46.60701 -5.41322 37985 ft 462 kts 29°
2026-05-07 16:07 46.66180 -5.36476 37985 ft 462 kts 29°
2026-05-07 16:07 46.71685 -5.31601 37986 ft 462 kts 29°
2026-05-07 16:08 46.77178 -5.26726 37990 ft 462 kts 29°
2026-05-07 16:08 46.82677 -5.21833 37992 ft 462 kts 29°
2026-05-07 16:09 46.87263 -5.17744 37989 ft 463 kts 29°
2026-05-07 16:09 46.92764 -5.12827 37989 ft 463 kts 30°
2026-05-07 16:10 46.99168 -5.07089 37989 ft 463 kts 30°
2026-05-07 16:10 47.04664 -5.02151 37994 ft 464 kts 30°
2026-05-07 16:11 47.10132 -4.97227 37991 ft 464 kts 30°
2026-05-07 16:11 47.15636 -4.92258 37994 ft 464 kts 30°
2026-05-07 16:12 47.21133 -4.87283 37991 ft 464 kts 30°
2026-05-07 16:12 47.25745 -4.83098 37996 ft 464 kts 30°
2026-05-07 16:13 47.31211 -4.78129 37993 ft 464 kts 30°
2026-05-07 16:13 47.36731 -4.73098 37992 ft 464 kts 30°
2026-05-07 16:14 47.42220 -4.68083 37991 ft 464 kts 30°
2026-05-07 16:14 47.47725 -4.63040 37991 ft 465 kts 30°
2026-05-07 16:15 47.53217 -4.57997 37989 ft 464 kts 30°
2026-05-07 16:15 47.58711 -4.52939 37992 ft 465 kts 30°
2026-05-07 16:16 47.64209 -4.47866 37993 ft 465 kts 30°
2026-05-07 16:16 47.69695 -4.42790 37989 ft 465 kts 30°
2026-05-07 16:17 47.75194 -4.37692 37989 ft 465 kts 31°
2026-05-07 16:17 47.80683 -4.32606 37993 ft 465 kts 28°
2026-05-07 16:17 47.83609 -4.30710 37976 ft 459 kts 13°
2026-05-07 16:18 47.86693 -4.29396 37984 ft 461 kts 15°
2026-05-07 16:18 47.92855 -4.26681 38001 ft 462 kts 14°
2026-05-07 16:19 47.99019 -4.24032 37995 ft 461 kts 14°
2026-05-07 16:19 48.05168 -4.21392 37996 ft 461 kts 14°
2026-05-07 16:20 48.11371 -4.18722 37978 ft 461 kts 14°
2026-05-07 16:20 48.17504 -4.16076 37978 ft 461 kts 14°
2026-05-07 16:21 48.23680 -4.13405 37979 ft 461 kts 14°
2026-05-07 16:21 48.29860 -4.10725 37986 ft 461 kts 14°
2026-05-07 16:22 48.36018 -4.08049 37992 ft 461 kts 14°
2026-05-07 16:22 48.42215 -4.05348 37991 ft 461 kts 14°
2026-05-07 16:23 48.48362 -4.02663 37983 ft 461 kts 14°
2026-05-07 16:23 48.54526 -3.99963 37992 ft 461 kts 14°
2026-05-07 16:24 48.60682 -3.97260 37967 ft 460 kts 14°
2026-05-07 16:24 48.66823 -3.94556 37966 ft 461 kts 14°
2026-05-07 16:25 48.72997 -3.91831 37971 ft 460 kts 14°
2026-05-07 16:25 48.79161 -3.89104 37968 ft 460 kts 14°
2026-05-07 16:26 48.85312 -3.86375 37972 ft 460 kts 14°
2026-05-07 16:26 48.91465 -3.83640 37975 ft 460 kts 14°
2026-05-07 16:27 48.97608 -3.81049 37961 ft 457 kts
2026-05-07 16:27 49.03928 -3.80532 37967 ft 456 kts
2026-05-07 16:28 49.10298 -3.80101 37983 ft 456 kts
2026-05-07 16:28 49.16635 -3.79712 37980 ft 456 kts
2026-05-07 16:29 49.22970 -3.79325 37985 ft 455 kts
2026-05-07 16:29 49.29307 -3.78938 37985 ft 455 kts
2026-05-07 16:30 49.35628 -3.78550 37989 ft 455 kts
2026-05-07 16:30 49.41961 -3.78161 37992 ft 455 kts
2026-05-07 16:31 49.48287 -3.77771 37993 ft 455 kts
2026-05-07 16:31 49.54595 -3.77381 37997 ft 455 kts
2026-05-07 16:32 49.60916 -3.76989 37996 ft 454 kts
2026-05-07 16:32 49.67270 -3.76595 37999 ft 454 kts
2026-05-07 16:33 49.73565 -3.75899 38001 ft 455 kts
2026-05-07 16:33 49.79864 -3.75156 38000 ft 454 kts
2026-05-07 16:34 49.86189 -3.74417 38004 ft 454 kts
2026-05-07 16:34 49.92486 -3.73679 38004 ft 454 kts
2026-05-07 16:35 49.98767 -3.72942 38003 ft 454 kts
2026-05-07 16:35 50.05100 -3.72196 38009 ft 454 kts
2026-05-07 16:36 50.11389 -3.71453 38009 ft 454 kts
2026-05-07 16:36 50.17657 -3.70712 38011 ft 454 kts
2026-05-07 16:37 50.23982 -3.69961 38008 ft 453 kts
2026-05-07 16:37 50.30245 -3.69216 38005 ft 453 kts
2026-05-07 16:38 50.36534 -3.68466 38010 ft 453 kts
2026-05-07 16:38 50.42817 -3.67573 38014 ft 454 kts
2026-05-07 16:39 50.49102 -3.66429 38012 ft 454 kts
2026-05-07 16:39 50.55375 -3.65224 38015 ft 454 kts
2026-05-07 16:40 50.61634 -3.64031 38019 ft 453 kts
2026-05-07 16:40 50.67919 -3.62830 38022 ft 454 kts
2026-05-07 16:41 50.74163 -3.61633 38017 ft 453 kts
2026-05-07 16:41 50.80417 -3.60432 38019 ft 453 kts
2026-05-07 16:42 50.86697 -3.59222 38022 ft 453 kts
2026-05-07 16:42 50.92945 -3.58016 38006 ft 453 kts
2026-05-07 16:43 50.99224 -3.56799 38011 ft 452 kts
2026-05-07 16:43 51.05477 -3.55585 38012 ft 452 kts
2026-05-07 16:44 51.11723 -3.54368 38007 ft 452 kts
2026-05-07 16:44 51.17957 -3.53151 38015 ft 452 kts
2026-05-07 16:45 51.23165 -3.52132 38018 ft 451 kts
2026-05-07 16:45 51.29392 -3.50910 38024 ft 451 kts
2026-05-07 16:46 51.35631 -3.49682 38024 ft 451 kts
2026-05-07 16:46 51.41854 -3.48454 38025 ft 451 kts
2026-05-07 16:47 51.48090 -3.47220 38024 ft 451 kts
2026-05-07 16:47 51.54303 -3.45987 38022 ft 451 kts
2026-05-07 16:48 51.60511 -3.44752 37859 ft 445 kts
2026-05-07 16:48 51.63551 -3.44146 37306 ft 442 kts
2026-05-07 16:48 51.66615 -3.43534 36755 ft 440 kts
2026-05-07 16:48 51.69659 -3.42926 36259 ft 436 kts
2026-05-07 16:49 51.72641 -3.42329 35772 ft 433 kts
2026-05-07 16:49 51.75604 -3.41735 35280 ft 431 kts
2026-05-07 16:49 51.78583 -3.41137 34782 ft 428 kts
2026-05-07 16:49 51.81548 -3.40541 34289 ft 426 kts
2026-05-07 16:50 51.84494 -3.39948 33753 ft 425 kts
2026-05-07 16:50 51.87408 -3.39360 33204 ft 423 kts
2026-05-07 16:50 51.90296 -3.38778 32716 ft 419 kts
2026-05-07 16:50 51.93195 -3.38270 32222 ft 415 kts 359°
2026-05-07 16:51 51.96058 -3.38129 31712 ft 412 kts 359°
2026-05-07 16:51 51.98943 -3.37950 31282 ft 408 kts 360°
2026-05-07 16:51 52.01746 -3.37755 30850 ft 405 kts 360°
2026-05-07 16:51 52.04543 -3.37550 30402 ft 403 kts 360°
2026-05-07 16:52 52.07365 -3.37339 29930 ft 400 kts 360°
2026-05-07 16:52 52.10146 -3.37128 29417 ft 398 kts 360°
2026-05-07 16:52 52.12878 -3.36921 28996 ft 393 kts
2026-05-07 16:52 52.15616 -3.36713 28576 ft 389 kts
2026-05-07 16:53 52.18280 -3.36510 28163 ft 386 kts
2026-05-07 16:53 52.20949 -3.36307 27756 ft 382 kts
2026-05-07 16:53 52.23601 -3.36105 27347 ft 379 kts
2026-05-07 16:53 52.26238 -3.35904 26948 ft 376 kts
2026-05-07 16:54 52.28832 -3.35706 26554 ft 373 kts
2026-05-07 16:54 52.31415 -3.35508 26168 ft 371 kts
2026-05-07 16:54 52.34007 -3.35310 25792 ft 369 kts
2026-05-07 16:54 52.36573 -3.35113 25402 ft 366 kts
2026-05-07 16:55 52.39095 -3.34920 25023 ft 364 kts
2026-05-07 16:55 52.41638 -3.34725 24650 ft 362 kts
2026-05-07 16:55 52.44121 -3.34534 24288 ft 360 kts
2026-05-07 16:55 52.46629 -3.34344 23906 ft 359 kts
2026-05-07 16:56 52.49112 -3.34162 23505 ft 358 kts
2026-05-07 16:56 52.51606 -3.33978 23086 ft 356 kts
2026-05-07 16:56 52.56506 -3.33616 22358 ft 349 kts
2026-05-07 16:57 52.58913 -3.33438 21997 ft 346 kts
2026-05-07 16:57 52.61332 -3.33259 21646 ft 343 kts
2026-05-07 16:57 52.63661 -3.32697 21247 ft 345 kts 16°
2026-05-07 16:57 52.65929 -3.31331 20903 ft 343 kts 17°
2026-05-07 16:58 52.68159 -3.30028 20566 ft 340 kts 17°
2026-05-07 16:58 52.70374 -3.28718 20225 ft 338 kts 18°
2026-05-07 16:58 52.72571 -3.27413 19885 ft 335 kts 18°
2026-05-07 16:58 52.74747 -3.26115 19574 ft 332 kts 18°
2026-05-07 16:59 52.76925 -3.24813 19277 ft 329 kts 18°
2026-05-07 16:59 52.79078 -3.23524 18976 ft 326 kts 18°
2026-05-07 16:59 52.81195 -3.22256 18674 ft 323 kts 18°
2026-05-07 16:59 52.83290 -3.21000 18380 ft 320 kts 18°
2026-05-07 17:00 52.85392 -3.19738 18045 ft 318 kts 18°
2026-05-07 17:00 52.87464 -3.18493 17722 ft 319 kts 18°
2026-05-07 17:00 52.89573 -3.17449 17379 ft 315 kts
2026-05-07 17:00 52.91754 -3.17240 17103 ft 310 kts
2026-05-07 17:01 52.93891 -3.17055 16845 ft 310 kts
2026-05-07 17:01 52.96059 -3.16876 16561 ft 309 kts
2026-05-07 17:01 52.98179 -3.16706 16269 ft 306 kts
2026-05-07 17:01 53.00314 -3.16536 15996 ft 304 kts
2026-05-07 17:02 53.02410 -3.16370 15715 ft 304 kts
2026-05-07 17:02 53.04532 -3.16202 15435 ft 303 kts
2026-05-07 17:02 53.06626 -3.16037 15154 ft 301 kts
2026-05-07 17:02 53.08705 -3.15873 14847 ft 298 kts
2026-05-07 17:03 53.10779 -3.15709 14584 ft 296 kts
2026-05-07 17:03 53.12838 -3.15546 14326 ft 297 kts 360°
2026-05-07 17:03 53.14885 -3.15384 14059 ft 296 kts 360°
2026-05-07 17:03 53.16959 -3.15219 13776 ft 296 kts 360°
2026-05-07 17:04 53.18997 -3.15057 13471 ft 295 kts
2026-05-07 17:04 53.21066 -3.14893 13173 ft 294 kts
2026-05-07 17:04 53.23103 -3.14730 12902 ft 293 kts
2026-05-07 17:04 53.25132 -3.14569 12627 ft 292 kts
2026-05-07 17:05 53.27148 -3.14408 12354 ft 291 kts
2026-05-07 17:05 53.29178 -3.14246 12083 ft 290 kts
2026-05-07 17:05 53.31175 -3.14087 11815 ft 289 kts
2026-05-07 17:05 53.33192 -3.13926 11541 ft 288 kts
2026-05-07 17:06 53.35179 -3.13767 11270 ft 287 kts
2026-05-07 17:06 53.37186 -3.13547 10985 ft 288 kts
2026-05-07 17:06 53.39026 -3.12293 10677 ft 290 kts 34°
2026-05-07 17:06 53.40381 -3.09852 10435 ft 289 kts 56°
2026-05-07 17:07 53.41408 -3.06969 10190 ft 287 kts 58°
2026-05-07 17:07 53.42428 -3.04089 9932 ft 286 kts 58°
2026-05-07 17:07 53.43433 -3.01219 9632 ft 283 kts 58°
2026-05-07 17:07 53.44412 -2.98409 9364 ft 280 kts 58°
2026-05-07 17:08 53.45384 -2.95606 9093 ft 276 kts 58°
2026-05-07 17:08 53.46352 -2.92811 8839 ft 274 kts 58°
2026-05-07 17:08 53.47305 -2.90052 8588 ft 275 kts 59°
2026-05-07 17:08 53.48275 -2.87240 8312 ft 276 kts 59°
2026-05-07 17:09 53.49227 -2.84476 8070 ft 276 kts 59°
2026-05-07 17:09 53.50185 -2.81710 7812 ft 273 kts 59°
2026-05-07 17:09 53.51145 -2.78954 7551 ft 270 kts 59°
2026-05-07 17:09 53.52080 -2.76277 7371 ft 264 kts 59°
2026-05-07 17:10 53.53009 -2.73621 7179 ft 258 kts 59°
2026-05-07 17:10 53.53902 -2.71073 7049 ft 249 kts 59°
2026-05-07 17:10 53.54770 -2.68597 6910 ft 246 kts 59°
2026-05-07 17:10 53.55648 -2.66107 6782 ft 246 kts 59°
2026-05-07 17:11 53.56515 -2.63655 6655 ft 245 kts 59°
2026-05-07 17:11 53.57384 -2.61196 6531 ft 245 kts 59°
2026-05-07 17:11 53.58258 -2.58722 6402 ft 244 kts 59°
2026-05-07 17:11 53.59123 -2.56291 6272 ft 244 kts 59°
2026-05-07 17:12 53.60002 -2.53831 6139 ft 243 kts 59°
2026-05-07 17:12 53.60870 -2.51416 5999 ft 242 kts 59°
2026-05-07 17:12 53.61738 -2.49017 5864 ft 241 kts 59°
2026-05-07 17:12 53.62621 -2.46595 5730 ft 240 kts 59°
2026-05-07 17:13 53.63490 -2.44224 5599 ft 240 kts 59°
2026-05-07 17:13 53.64366 -2.41847 5469 ft 239 kts 59°
2026-05-07 17:13 53.65247 -2.39461 5335 ft 237 kts 59°
2026-05-07 17:13 53.66123 -2.37107 5207 ft 237 kts 59°
2026-05-07 17:14 53.66995 -2.34780 5072 ft 236 kts 59°
2026-05-07 17:14 53.67874 -2.32433 4992 ft 235 kts 59°
2026-05-07 17:14 53.68756 -2.30089 4994 ft 235 kts 59°
2026-05-07 17:14 53.69606 -2.27762 4967 ft 234 kts 65°
2026-05-07 17:15 53.69905 -2.25104 4962 ft 230 kts 97°
2026-05-07 17:15 53.69344 -2.22605 4962 ft 229 kts 124°
2026-05-07 17:15 53.68378 -2.20465 4856 ft 229 kts 129°
2026-05-07 17:15 53.67384 -2.18400 4742 ft 228 kts 130°
2026-05-07 17:16 53.66383 -2.16330 4614 ft 227 kts 130°
2026-05-07 17:16 53.65389 -2.14274 4489 ft 227 kts 130°
2026-05-07 17:16 53.64392 -2.12217 4356 ft 226 kts 130°
2026-05-07 17:16 53.63385 -2.10164 4231 ft 226 kts 132°
2026-05-07 17:17 53.62240 -2.08328 4097 ft 225 kts 139°
2026-05-07 17:17 53.61066 -2.06639 3982 ft 225 kts 140°
2026-05-07 17:17 53.59866 -2.04932 3847 ft 224 kts 140°
2026-05-07 17:17 53.58724 -2.03164 3707 ft 223 kts 128°
2026-05-07 17:18 53.58172 -2.00743 3568 ft 224 kts 95°
2026-05-07 17:18 53.58482 -1.98214 3497 ft 226 kts 66°
2026-05-07 17:18 53.59061 -1.95749 3479 ft 224 kts 84°
2026-05-07 17:18 53.58875 -1.93211 3473 ft 221 kts 117°
2026-05-07 17:19 53.57794 -1.91468 3493 ft 220 kts 153°
2026-05-07 17:19 53.56445 -1.90864 3519 ft 223 kts 176°
2026-05-07 17:19 53.54927 -1.91245 3510 ft 225 kts 196°
2026-05-07 17:19 53.53451 -1.92170 3504 ft 226 kts 200°
2026-05-07 17:20 53.52023 -1.93302 3489 ft 226 kts 213°
2026-05-07 17:20 53.50893 -1.95124 3494 ft 228 kts 228°
2026-05-07 17:20 53.49914 -1.97210 3502 ft 228 kts 230°
2026-05-07 17:20 53.48929 -1.99311 3499 ft 228 kts 230°
2026-05-07 17:21 53.47931 -2.01400 3494 ft 228 kts 229°
2026-05-07 17:21 53.46961 -2.03428 3507 ft 217 kts 229°
2026-05-07 17:21 53.46040 -2.05350 3419 ft 201 kts 229°
2026-05-07 17:21 53.45203 -2.07094 3175 ft 186 kts 228°
2026-05-07 17:22 53.44385 -2.08793 2913 ft 185 kts 228°
2026-05-07 17:22 53.43584 -2.10457 2675 ft 184 kts 229°
2026-05-07 17:22 53.42776 -2.12140 2425 ft 184 kts 229°
2026-05-07 17:22 53.41983 -2.13788 2173 ft 176 kts 228°
2026-05-07 17:23 53.41257 -2.15301 1951 ft 157 kts 228°
2026-05-07 17:23 53.40594 -2.16675 1741 ft 149 kts 229°
2026-05-07 17:23 53.40153 -2.17589 1587 ft 149 kts 228°
2026-05-07 17:23 53.39504 -2.18938 1392 ft 149 kts 229°
2026-05-07 17:24 53.38846 -2.20302 1175 ft 149 kts 229°
2026-05-07 17:24 53.38201 -2.21637 976 ft 149 kts 229°
2026-05-07 17:24 53.37553 -2.22976 780 ft 146 kts 229°
2026-05-07 17:24 53.36910 -2.24301 550 ft 145 kts 229°
2026-05-07 17:25 53.36281 -2.25615 337 ft 143 kts 230°
2026-05-07 17:25 53.35697 -2.26827 250 ft 111 kts 231°
2026-05-07 17:25 53.35364 -2.27520 243 ft 49 kts 232°
2026-05-07 17:25 53.35261 -2.27860 238 ft 19 kts 255°
2026-05-07 17:26 53.35237 -2.28083 237 ft 21 kts 261°
2026-05-07 17:26 53.35233 -2.28181 234 ft 5 kts 281°
2026-05-07 17:26 53.35262 -2.28222 235 ft 6 kts
2026-05-07 17:26 53.35297 -2.28180 237 ft 7 kts 44°
2026-05-07 17:27 53.35324 -2.28135 238 ft 5 kts 45°
2026-05-07 17:27 53.35343 -2.28104 236 ft 2 kts 44°
2026-05-07 17:27 53.35350 -2.28093 236 ft 0 kts 44°
2026-05-07 17:29 53.35355 -2.28084 236 ft 2 kts 44°
2026-05-07 17:29 53.35368 -2.28065 237 ft 3 kts 44°
2026-05-07 17:30 53.35386 -2.28034 237 ft 4 kts 44°
2026-05-07 17:30 53.35412 -2.27993 238 ft 6 kts 44°
2026-05-07 17:30 53.35443 -2.27941 238 ft 7 kts 45°
2026-05-07 17:30 53.35460 -2.27861 239 ft 8 kts 88°
2026-05-07 17:31 53.35472 -2.27765 240 ft 9 kts 62°
2026-05-07 17:31 53.35514 -2.27672 241 ft 11 kts 50°
2026-05-07 17:31 53.35564 -2.27570 242 ft 12 kts 50°
2026-05-07 17:31 53.35619 -2.27458 243 ft 13 kts 50°
2026-05-07 17:32 53.35680 -2.27333 245 ft 14 kts 51°
2026-05-07 17:32 53.35745 -2.27198 247 ft 15 kts 52°
2026-05-07 17:32 53.35814 -2.27052 248 ft 16 kts 51°
2026-05-07 17:32 53.35868 -2.26909 250 ft 15 kts 56°
2026-05-07 17:33 53.35929 -2.26833 251 ft 10 kts 347°
2026-05-07 17:33 53.35992 -2.26819 252 ft 8 kts 45°
2026-05-07 17:33 53.36035 -2.26794 252 ft 7 kts 327°
2026-05-07 17:33 53.36064 -2.26843 252 ft 2 kts 314°
2026-05-07 17:34 53.36068 -2.26850 252 ft 0 kts 314°